Location: Unspecified
(42.4015°N, 0.0000°E)
Time: 16:13:06
(UTC+00:00)

deb HAPS - Visible Passes

Search period start: 04 April 2026 00:00
Search period end: 14 April 2026 00:00
Orbit: 892 x 917 km, 82.6° (Epoch: 27 March)

Date Brightness Start Highest point End Pass type
(mag) Time Alt. Az. Time Alt. Az. Time Alt. Az.
4 Apr ? 04:25:14 10° S 04:31:05 64° E 04:36:58 10° NNE visible
5 Apr ? 02:51:33 10° E 02:52:14 10° ENE 02:52:55 10° ENE visible
5 Apr ? 04:29:08 10° S 04:35:03 79° E 04:41:02 10° N visible
6 Apr ? 02:53:23 10° ESE 02:56:02 13° E 02:58:42 10° NE visible
6 Apr ? 04:33:06 10° S 04:39:02 85° W 04:45:03 10° N visible
7 Apr ? 02:56:16 10° ESE 02:59:52 17° E 03:03:28 10° NE visible
7 Apr ? 04:37:08 10° SSW 04:43:03 70° W 04:49:01 10° N visible
8 Apr ? 02:59:26 10° SE 03:03:42 21° E 03:07:59 10° NE visible
8 Apr ? 04:41:15 10° SSW 04:47:05 57° WNW 04:52:58 10° N visible
9 Apr ? 03:02:48 10° SE 03:07:34 26° E 03:12:21 10° NNE visible
9 Apr ? 04:45:27 10° SSW 04:51:08 46° WNW 04:56:52 10° N visible
10 Apr ? 03:06:18 10° SSE 03:11:26 32° E 03:16:37 10° NNE visible
10 Apr ? 04:49:44 10° SW 04:55:12 37° WNW 05:00:43 10° N visible
11 Apr ? 03:09:54 10° SSE 03:15:20 39° E 03:20:49 10° NNE visible
11 Apr ? 04:54:06 10° SW 04:59:17 31° WNW 05:04:32 10° N visible
12 Apr ? 03:13:36 10° SSE 03:19:15 48° E 03:24:58 10° NNE visible
13 Apr ? 03:17:52 13° S 03:23:12 60° E 03:29:03 10° NNE visible
